Starlink 31905

operational
NORAD ID: 59896 Int'l Des: 2024-100 Owner: SPXS Country: US Constellation: starlink
LEOCIRCULAR

Starlink 31905について

説明を読み込み中...

リアルタイム位置

3D地球を読み込み中...

次回通過

高度履歴

Altitude vs Time

uPlot chart will show altitude changes over time

軌道要素

1 59896U 24100M 25259.61784743 .00001041 00000-0 47335-4 0 9999
2 59896 43.0072 25.1078 0001507 273.7716 86.2963 15.27581722 74571
Epoch: Sep 16, 2025 • Age: 36 hours

現在のステータス

高度 489.0 km
速度 7.62 km/s
衛星直下点 -26.68°S, 54.17°W
打ち上げ日 May 28, 2024
運用期間 1.3 years
タイプ internet

技術仕様

分類 Payload
質量 730.00 kg
乾燥質量 700.00 kg
総質量 730.00 kg
長さ 0.30 m
直径 4.10 m
スパン 29.00 m
形状 Box + pan
製造者 SPXS
バスタイプ Starlink V2M
フェーズステータス In Orbit
所有者/国 SPXS/US

大規模コンステレーション

Loading constellations...